WHDW 18-02

operational
NORAD ID: 67436 Int'l Des: 2026-007 Owner: ZXW Country: CN
LEOCIRCULAR

About WHDW 18-02

Description loading...

Live Position

Loading 3D Globe...

Upcoming Passes

Altitude History

Altitude vs Time

uPlot chart will show altitude changes over time

Two-Line Element Set

1 67436U 26007B 26046.29416971 -.00000028 00000-0 13385-3 0 9992
2 67436 50.0080 166.2007 0000668 22.7183 337.3734 13.64689463 4527
Epoch: Feb 15, 2026 • Age: 34 hours

Current Status

Altitude 1025.0 km
Velocity 7.34 km/s
Sub-Earth Point -21.68°S, 48.67°W
Launch Date Jan 13, 2026
Age 34 days
Type other

Technical Details

Classification Payload
Mass 700.00 kg
Dry Mass 700.00 kg
Total Mass 700.00 kg
Length 3.00 m
Diameter 1.00 m
Span 10.00 m
Shape Box + 2 Pan
Manufacturer CAST
Bus Type Xingwang C
Phase Status In Orbit
Owner/State ZXW/CN

Large Constellations

Loading constellations...